Time,TemperatureF,DewpointF,PressureIn,WindDirection,WindDirectionDegrees,WindSpeedMPH,WindSpeedGustMPH,Humidity,HourlyPrecipIn,Conditions,Clouds,dailyrainin,SolarRadiationWatts/m^2,SoftwareType,DateUTC
2013-07-17 00:04:00,56.5,55.6,29.96,SW,221,1.0,8.0,97,0.00,,,0.00,0.0,meteohub,2013-07-17 07:04:00,
2013-07-17 00:09:00,56.5,55.6,29.96,WSW,253,0.0,8.0,97,0.00,,,0.00,0.0,meteohub,2013-07-17 07:09:00,
2013-07-17 00:14:00,56.5,55.6,29.96,WNW,300,4.0,7.0,97,0.00,,,0.00,0.0,meteohub,2013-07-17 07:14:00,
2013-07-17 00:19:00,56.5,55.6,29.96,WNW,294,3.0,9.0,97,0.00,,,0.00,0.0,meteohub,2013-07-17 07:19:00,
2013-07-17 00:24:00,56.5,55.6,29.96,West,279,4.0,9.0,97,0.00,,,0.00,0.0,meteohub,2013-07-17 07:24:00,
2013-07-17 00:29:00,56.5,55.6,29.96,SW,214,5.0,9.0,97,0.00,,,0.00,0.0,meteohub,2013-07-17 07:29:00,
2013-07-17 00:34:00,56.5,55.6,29.96,WSW,252,1.0,9.0,97,0.00,,,0.00,0.0,meteohub,2013-07-17 07:34:00,
2013-07-17 00:39:00,56.5,55.6,29.96,SW,225,5.0,11.0,97,0.00,,,0.00,0.0,meteohub,2013-07-17 07:39:00,
2013-07-17 00:44:00,56.5,55.6,29.96,WSW,238,1.0,11.0,97,0.00,,,0.00,0.0,meteohub,2013-07-17 07:44:00,
2013-07-17 00:49:00,56.5,55.6,29.96,WSW,242,5.0,9.0,97,0.00,,,0.00,0.0,meteohub,2013-07-17 07:49:00,
2013-07-17 00:54:00,56.5,55.6,29.97,SW,224,6.0,9.0,97,0.00,,,0.00,0.0,meteohub,2013-07-17 07:54:00,
2013-07-17 00:59:00,56.5,55.6,29.96,WSW,243,5.0,8.0,97,0.00,,,0.00,0.0,meteohub,2013-07-17 07:59:00,
2013-07-17 01:04:00,56.5,55.6,29.96,SW,236,3.0,9.0,97,0.00,,,0.00,0.0,meteohub,2013-07-17 08:04:00,
2013-07-17 01:09:00,56.5,55.6,29.96,SW,226,0.0,9.0,97,0.00,,,0.00,0.0,meteohub,2013-07-17 08:09:00,
2013-07-17 01:14:00,56.5,55.6,29.96,West,269,2.0,10.0,97,0.00,,,0.00,0.0,meteohub,2013-07-17 08:14:00,
2013-07-17 01:19:00,56.5,55.6,29.96,WSW,243,4.0,10.0,97,0.00,,,0.00,0.0,meteohub,2013-07-17 08:19:00,
2013-07-17 01:24:00,56.5,55.6,29.96,SW,229,2.0,10.0,97,0.00,,,0.00,0.0,meteohub,2013-07-17 08:24:00,
2013-07-17 01:29:00,56.5,55.6,29.96,SW,234,5.0,9.0,97,0.00,,,0.00,0.0,meteohub,2013-07-17 08:29:00,
2013-07-17 01:34:00,56.5,55.6,29.97,South,191,2.0,9.0,97,0.00,,,0.00,0.0,meteohub,2013-07-17 08:34:00,
2013-07-17 01:39:00,56.5,55.6,29.97,WNW,295,2.0,9.0,97,0.00,,,0.00,0.0,meteohub,2013-07-17 08:39:00,
2013-07-17 01:44:00,56.5,55.6,29.97,NW,304,2.0,6.0,97,0.00,,,0.00,0.0,meteohub,2013-07-17 08:44:00,
2013-07-17 01:49:00,56.5,55.4,29.97,SW,236,2.0,6.0,96,0.00,,,0.00,0.0,meteohub,2013-07-17 08:49:00,
2013-07-17 01:54:00,56.5,55.4,29.97,WSW,238,1.0,7.0,96,0.00,,,0.00,0.0,meteohub,2013-07-17 08:54:00,
2013-07-17 01:59:00,56.5,55.4,29.97,West,261,4.0,7.0,96,0.00,,,0.00,0.0,meteohub,2013-07-17 08:59:00,
2013-07-17 02:04:00,56.5,55.4,29.97,SW,224,3.0,7.0,96,0.00,,,0.00,0.0,meteohub,2013-07-17 09:04:00,
2013-07-17 02:09:00,56.5,55.4,29.97,WSW,252,1.0,10.0,96,0.00,,,0.00,0.0,meteohub,2013-07-17 09:09:00,
2013-07-17 02:14:00,56.5,55.4,29.97,West,277,3.0,10.0,96,0.00,,,0.00,0.0,meteohub,2013-07-17 09:14:00,
2013-07-17 02:19:00,56.5,55.4,29.97,SW,235,7.0,9.0,96,0.00,,,0.00,0.0,meteohub,2013-07-17 09:19:00,
2013-07-17 02:24:00,56.5,55.4,29.96,West,277,3.0,11.0,96,0.00,,,0.00,0.0,meteohub,2013-07-17 09:24:00,
2013-07-17 02:29:00,56.5,55.4,29.97,WNW,292,1.0,11.0,96,0.00,,,0.00,0.0,meteohub,2013-07-17 09:29:00,
2013-07-17 02:34:00,56.5,55.4,29.97,SSW,196,3.0,11.0,96,0.00,,,0.00,0.0,meteohub,2013-07-17 09:34:00,
2013-07-17 02:39:00,56.5,55.4,29.97,West,259,2.0,10.0,96,0.00,,,0.00,0.0,meteohub,2013-07-17 09:39:00,
2013-07-17 02:44:00,56.5,55.4,29.97,WSW,249,4.0,8.0,96,0.00,,,0.00,0.0,meteohub,2013-07-17 09:44:00,
2013-07-17 02:49:00,56.5,55.4,29.97,SW,236,2.0,9.0,96,0.00,,,0.00,0.0,meteohub,2013-07-17 09:49:00,
2013-07-17 02:54:00,56.5,55.4,29.97,WSW,247,3.0,9.0,96,0.00,,,0.00,0.0,meteohub,2013-07-17 09:54:00,
2013-07-17 02:59:00,56.5,55.4,29.97,SW,216,5.0,9.0,96,0.00,,,0.00,0.0,meteohub,2013-07-17 09:59:00,
2013-07-17 03:04:00,56.5,55.4,29.97,West,268,0.0,9.0,96,0.00,,,0.00,0.0,meteohub,2013-07-17 10:04:00,
2013-07-17 03:09:00,56.5,55.4,29.97,West,279,1.0,8.0,96,0.00,,,0.00,0.0,meteohub,2013-07-17 10:09:00,
2013-07-17 03:14:00,56.5,55.4,29.97,West,261,5.0,6.0,96,0.00,,,0.00,0.0,meteohub,2013-07-17 10:14:00,
2013-07-17 03:19:00,56.5,55.4,29.96,WSW,240,2.0,9.0,96,0.00,,,0.00,0.0,meteohub,2013-07-17 10:19:00,
2013-07-17 03:24:00,56.3,54.9,29.96,WSW,244,5.0,10.0,95,0.00,,,0.00,0.0,meteohub,2013-07-17 10:24:00,
2013-07-17 03:29:00,56.3,54.9,29.96,WSW,238,4.0,13.0,95,0.00,,,0.00,0.0,meteohub,2013-07-17 10:29:00,
2013-07-17 03:34:00,56.3,54.9,29.96,West,281,6.0,13.0,95,0.00,,,0.00,0.0,meteohub,2013-07-17 10:34:00,
2013-07-17 03:39:00,56.3,54.9,29.96,WSW,240,3.0,13.0,95,0.00,,,0.00,0.0,meteohub,2013-07-17 10:39:00,
2013-07-17 03:44:00,56.3,54.9,29.96,WSW,250,7.0,10.0,95,0.00,,,0.00,0.0,meteohub,2013-07-17 10:44:00,
2013-07-17 03:49:00,56.3,54.9,29.96,West,275,1.0,10.0,95,0.00,,,0.00,0.0,meteohub,2013-07-17 10:49:00,
2013-07-17 03:54:00,56.3,54.9,29.96,SW,231,4.0,12.0,95,0.00,,,0.00,0.0,meteohub,2013-07-17 10:54:00,
2013-07-17 03:59:00,56.3,54.9,29.96,West,276,0.0,12.0,95,0.00,,,0.00,0.0,meteohub,2013-07-17 10:59:00,
2013-07-17 04:04:00,56.3,54.9,29.96,WSW,254,1.0,10.0,95,0.00,,,0.00,0.0,meteohub,2013-07-17 11:04:00,
2013-07-17 04:09:00,56.3,54.9,29.96,WSW,239,2.0,10.0,95,0.00,,,0.00,0.0,meteohub,2013-07-17 11:09:00,
2013-07-17 04:14:00,56.1,54.7,29.96,WSW,247,10.0,13.0,95,0.00,,,0.00,0.0,meteohub,2013-07-17 11:14:00,
2013-07-17 04:19:00,56.1,54.7,29.96,WSW,246,3.0,13.0,95,0.00,,,0.00,0.0,meteohub,2013-07-17 11:19:00,
2013-07-17 04:24:00,56.1,54.7,29.96,West,276,3.0,13.0,95,0.00,,,0.00,0.0,meteohub,2013-07-17 11:24:00,
2013-07-17 04:29:00,56.1,54.5,29.96,NW,308,3.0,13.0,94,0.00,,,0.00,0.0,meteohub,2013-07-17 11:29:00,
2013-07-17 04:34:00,56.1,54.7,29.96,NW,320,1.0,14.0,95,0.00,,,0.00,0.0,meteohub,2013-07-17 11:34:00,
2013-07-17 04:39:00,56.1,54.7,29.96,WNW,291,4.0,14.0,95,0.00,,,0.00,0.0,meteohub,2013-07-17 11:39:00,
2013-07-17 04:44:00,56.1,54.5,29.96,SW,232,4.0,10.0,94,0.00,,,0.00,0.0,meteohub,2013-07-17 11:44:00,
2013-07-17 04:49:00,56.1,54.5,29.96,SW,232,4.0,10.0,94,0.00,,,0.00,0.0,meteohub,2013-07-17 11:49:00,
2013-07-17 04:54:00,56.1,54.5,29.97,SW,221,4.0,10.0,94,0.00,,,0.00,0.0,meteohub,2013-07-17 11:54:00,
2013-07-17 04:59:00,55.9,54.3,29.96,WSW,242,6.0,10.0,94,0.00,,,0.00,0.0,meteohub,2013-07-17 11:59:00,
2013-07-17 05:04:00,55.9,54.3,29.97,West,264,3.0,10.0,94,0.00,,,0.00,0.0,meteohub,2013-07-17 12:04:00,
2013-07-17 05:09:00,55.9,54.3,29.97,SW,221,3.0,10.0,94,0.00,,,0.00,0.0,meteohub,2013-07-17 12:09:00,
2013-07-17 05:14:00,55.9,54.3,29.97,West,278,1.0,10.0,94,0.00,,,0.00,0.0,meteohub,2013-07-17 12:14:00,
2013-07-17 05:19:00,56.1,54.5,29.97,SW,225,6.0,10.0,94,0.00,,,0.00,0.0,meteohub,2013-07-17 12:19:00,
2013-07-17 05:24:00,55.9,54.3,29.97,West,264,2.0,10.0,94,0.00,,,0.00,0.0,meteohub,2013-07-17 12:24:00,
2013-07-17 05:29:00,55.9,54.3,29.97,WNW,303,0.0,10.0,94,0.00,,,0.00,0.0,meteohub,2013-07-17 12:29:00,
2013-07-17 05:34:00,55.9,54.3,29.97,WNW,288,1.0,10.0,94,0.00,,,0.00,0.0,meteohub,2013-07-17 12:34:00,
2013-07-17 05:39:00,55.9,54.3,29.98,WNW,303,5.0,10.0,94,0.00,,,0.00,0.0,meteohub,2013-07-17 12:39:00,
2013-07-17 05:44:00,55.9,54.3,29.98,West,279,0.0,7.0,94,0.00,,,0.00,0.0,meteohub,2013-07-17 12:44:00,
2013-07-17 05:49:00,55.9,54.3,29.98,West,259,0.0,7.0,94,0.00,,,0.00,0.0,meteohub,2013-07-17 12:49:00,
2013-07-17 05:54:00,55.9,54.3,29.98,WNW,284,2.0,6.0,94,0.00,,,0.00,0.0,meteohub,2013-07-17 12:54:00,
2013-07-17 05:59:00,55.9,54.3,29.98,West,259,2.0,5.0,94,0.00,,,0.00,0.0,meteohub,2013-07-17 12:59:00,
2013-07-17 06:04:00,55.9,54.0,29.98,West,275,1.0,5.0,93,0.00,,,0.00,0.0,meteohub,2013-07-17 13:04:00,
2013-07-17 06:09:00,55.9,54.0,29.99,NW,309,9.0,10.0,93,0.00,,,0.00,0.0,meteohub,2013-07-17 13:09:00,
2013-07-17 06:14:00,55.9,54.0,29.99,SW,229,4.0,10.0,93,0.00,,,0.00,5.0,meteohub,2013-07-17 13:14:00,
2013-07-17 06:19:00,55.9,54.0,29.99,West,280,0.0,10.0,93,0.00,,,0.00,7.0,meteohub,2013-07-17 13:19:00,
2013-07-17 06:24:00,55.9,54.0,29.99,SW,222,0.0,9.0,93,0.00,,,0.00,7.0,meteohub,2013-07-17 13:24:00,
2013-07-17 06:29:00,56.1,54.1,29.99,WSW,248,3.0,9.0,93,0.00,,,0.00,9.0,meteohub,2013-07-17 13:29:00,
2013-07-17 06:34:00,56.1,54.1,29.99,WSW,237,5.0,6.0,93,0.00,,,0.00,14.0,meteohub,2013-07-17 13:34:00,
2013-07-17 06:39:00,55.9,54.0,29.99,WNW,290,6.0,7.0,93,0.00,,,0.00,16.0,meteohub,2013-07-17 13:39:00,
2013-07-17 06:44:00,55.9,54.0,29.99,West,261,3.0,10.0,93,0.00,,,0.00,16.0,meteohub,2013-07-17 13:44:00,
2013-07-17 06:49:00,56.1,54.1,29.99,West,275,4.0,10.0,93,0.00,,,0.00,18.0,meteohub,2013-07-17 13:49:00,
2013-07-17 06:54:00,55.9,54.0,29.99,WSW,257,1.0,10.0,93,0.00,,,0.00,21.0,meteohub,2013-07-17 13:54:00,
2013-07-17 06:59:00,56.1,53.8,29.99,WNW,285,2.0,10.0,92,0.00,,,0.00,23.0,meteohub,2013-07-17 13:59:00,
2013-07-17 07:04:00,56.1,53.8,30.00,SW,214,2.0,11.0,92,0.00,,,0.00,26.0,meteohub,2013-07-17 14:04:00,
2013-07-17 07:09:00,56.1,53.8,30.00,NW,309,2.0,11.0,92,0.00,,,0.00,28.0,meteohub,2013-07-17 14:09:00,
2013-07-17 07:14:00,56.1,53.8,30.00,West,264,2.0,11.0,92,0.00,,,0.00,30.0,meteohub,2013-07-17 14:14:00,
2013-07-17 07:19:00,56.1,53.8,30.00,SW,221,4.0,10.0,92,0.00,,,0.00,33.0,meteohub,2013-07-17 14:19:00,
2013-07-17 07:25:00,56.3,54.0,30.00,WNW,283,2.0,12.0,92,0.00,,,0.00,35.0,meteohub,2013-07-17 14:25:00,
2013-07-17 07:30:00,56.1,53.8,30.01,West,277,5.0,12.0,92,0.00,,,0.00,40.0,meteohub,2013-07-17 14:30:00,
2013-07-17 07:35:00,56.1,53.8,30.01,West,259,4.0,8.0,92,0.00,,,0.00,53.0,meteohub,2013-07-17 14:35:00,
2013-07-17 07:40:00,56.3,54.3,30.01,SW,217,3.0,9.0,93,0.00,,,0.00,44.0,meteohub,2013-07-17 14:40:00,
2013-07-17 07:45:00,56.3,54.0,30.01,West,281,3.0,9.0,92,0.00,,,0.00,49.0,meteohub,2013-07-17 14:45:00,
2013-07-17 07:50:00,56.3,54.3,30.01,WNW,293,1.0,10.0,93,0.00,,,0.00,49.0,meteohub,2013-07-17 14:50:00,
2013-07-17 07:55:00,56.3,54.3,30.01,SW,221,4.0,11.0,93,0.00,,,0.00,54.0,meteohub,2013-07-17 14:55:00,
2013-07-17 08:00:00,56.5,54.5,30.01,WNW,288,3.0,11.0,93,0.00,,,0.00,51.0,meteohub,2013-07-17 15:00:00,
2013-07-17 08:05:00,56.5,54.5,30.01,WNW,287,1.0,11.0,93,0.00,,,0.00,54.0,meteohub,2013-07-17 15:05:00,
2013-07-17 08:10:00,56.5,54.5,30.01,West,274,1.0,10.0,93,0.00,,,0.00,63.0,meteohub,2013-07-17 15:10:00,
2013-07-17 08:15:00,56.5,54.5,30.01,SW,216,1.0,7.0,93,0.00,,,0.00,74.0,meteohub,2013-07-17 15:15:00,
2013-07-17 08:20:00,56.5,54.5,30.01,WNW,295,1.0,7.0,93,0.00,,,0.00,74.0,meteohub,2013-07-17 15:20:00,
2013-07-17 08:25:00,56.5,54.5,30.02,WSW,248,3.0,7.0,93,0.00,,,0.00,70.0,meteohub,2013-07-17 15:25:00,
2013-07-17 08:30:00,56.5,54.5,30.02,NNW,330,3.0,7.0,93,0.00,,,0.00,83.0,meteohub,2013-07-17 15:30:00,
2013-07-17 08:35:00,56.5,54.5,30.02,West,259,2.0,12.0,93,0.00,,,0.00,93.0,meteohub,2013-07-17 15:35:00,
2013-07-17 08:40:00,56.5,54.5,30.02,West,276,3.0,12.0,93,0.00,,,0.00,111.0,meteohub,2013-07-17 15:40:00,
2013-07-17 08:45:00,56.7,54.7,30.02,WNW,295,3.0,12.0,93,0.00,,,0.00,100.0,meteohub,2013-07-17 15:45:00,
2013-07-17 08:50:00,56.8,54.5,30.03,WSW,248,1.0,11.0,92,0.00,,,0.00,104.0,meteohub,2013-07-17 15:50:00,
2013-07-17 08:55:00,56.8,54.5,30.03,SW,227,5.0,7.0,92,0.00,,,0.00,111.0,meteohub,2013-07-17 15:55:00,
2013-07-17 09:00:00,56.8,54.5,30.03,West,259,0.0,9.0,92,0.00,,,0.00,114.0,meteohub,2013-07-17 16:00:00,
2013-07-17 09:05:00,56.8,54.5,30.03,West,261,0.0,12.0,92,0.00,,,0.00,104.0,meteohub,2013-07-17 16:05:00,
2013-07-17 09:10:00,56.8,54.5,30.03,West,273,5.0,12.0,92,0.00,,,0.00,118.0,meteohub,2013-07-17 16:10:00,
2013-07-17 09:15:00,56.8,54.5,30.03,WNW,290,0.0,12.0,92,0.00,,,0.00,130.0,meteohub,2013-07-17 16:15:00,
2013-07-17 09:20:00,57.0,54.7,30.03,WNW,295,5.0,11.0,92,0.00,,,0.00,167.0,meteohub,2013-07-17 16:20:00,
2013-07-17 09:25:00,57.2,54.7,30.03,WNW,292,2.0,11.0,91,0.00,,,0.00,128.0,meteohub,2013-07-17 16:25:00,
2013-07-17 09:30:00,57.0,54.5,30.03,SSW,213,0.0,10.0,91,0.00,,,0.00,149.0,meteohub,2013-07-17 16:30:00,
2013-07-17 09:35:00,57.0,54.7,30.03,WNW,288,10.0,10.0,92,0.00,,,0.00,151.0,meteohub,2013-07-17 16:35:00,
2013-07-17 09:40:00,57.0,54.5,30.03,NW,323,2.0,11.0,91,0.00,,,0.00,171.0,meteohub,2013-07-17 16:40:00,
2013-07-17 09:45:00,57.2,54.7,30.03,WNW,286,5.0,11.0,91,0.00,,,0.00,174.0,meteohub,2013-07-17 16:45:00,
2013-07-17 09:50:00,57.0,54.5,30.03,WNW,286,4.0,11.0,91,0.00,,,0.00,174.0,meteohub,2013-07-17 16:50:00,
2013-07-17 09:55:00,57.0,54.5,30.03,WSW,244,1.0,11.0,91,0.00,,,0.00,190.0,meteohub,2013-07-17 16:55:00,
2013-07-17 10:00:00,57.0,54.5,30.03,SW,229,6.0,11.0,91,0.00,,,0.00,188.0,meteohub,2013-07-17 17:00:00,
2013-07-17 10:05:00,57.0,54.5,30.03,West,279,1.0,11.0,91,0.00,,,0.00,204.0,meteohub,2013-07-17 17:05:00,
2013-07-17 10:10:00,57.4,54.9,30.04,WSW,250,2.0,11.0,91,0.00,,,0.00,211.0,meteohub,2013-07-17 17:10:00,
2013-07-17 10:15:00,57.6,54.7,30.04,West,280,4.0,10.0,90,0.00,,,0.00,206.0,meteohub,2013-07-17 17:15:00,
2013-07-17 10:20:00,57.4,54.5,30.04,WSW,246,2.0,9.0,90,0.00,,,0.00,239.0,meteohub,2013-07-17 17:20:00,
2013-07-17 10:25:00,57.7,54.9,30.04,SW,225,0.0,10.0,90,0.00,,,0.00,246.0,meteohub,2013-07-17 17:25:00,
2013-07-17 10:30:00,57.7,54.5,30.04,WSW,255,4.0,13.0,89,0.00,,,0.00,225.0,meteohub,2013-07-17 17:30:00,
2013-07-17 10:36:00,57.6,54.3,30.04,SW,219,4.0,13.0,89,0.00,,,0.00,220.0,meteohub,2013-07-17 17:36:00,
2013-07-17 10:41:00,57.4,54.5,30.04,WNW,301,3.0,13.0,90,0.00,,,0.00,225.0,meteohub,2013-07-17 17:41:00,
2013-07-17 10:46:00,57.4,54.5,30.04,WSW,238,6.0,11.0,90,0.00,,,0.00,244.0,meteohub,2013-07-17 17:46:00,
2013-07-17 10:51:00,57.4,54.5,30.04,WNW,282,1.0,14.0,90,0.00,,,0.00,272.0,meteohub,2013-07-17 17:51:00,
2013-07-17 10:56:00,57.4,54.1,30.04,SW,225,9.0,15.0,89,0.00,,,0.00,313.0,meteohub,2013-07-17 17:56:00,
2013-07-17 11:01:00,57.7,54.5,30.04,WSW,256,4.0,15.0,89,0.00,,,0.00,341.0,meteohub,2013-07-17 18:01:00,
2013-07-17 11:06:00,58.1,54.5,30.04,WSW,241,8.0,15.0,88,0.00,,,0.00,322.0,meteohub,2013-07-17 18:06:00,
2013-07-17 11:11:00,58.1,54.5,30.04,West,272,4.0,12.0,88,0.00,,,0.00,318.0,meteohub,2013-07-17 18:11:00,
2013-07-17 11:16:00,58.1,54.5,30.04,SSW,213,5.0,10.0,88,0.00,,,0.00,288.0,meteohub,2013-07-17 18:16:00,
2013-07-17 11:21:00,57.9,54.7,30.04,West,279,4.0,10.0,89,0.00,,,0.00,315.0,meteohub,2013-07-17 18:21:00,
2013-07-17 11:26:00,58.1,54.5,30.04,WNW,283,1.0,10.0,88,0.00,,,0.00,364.0,meteohub,2013-07-17 18:26:00,
2013-07-17 11:31:00,58.3,54.5,30.04,WNW,285,3.0,10.0,87,0.00,,,0.00,403.0,meteohub,2013-07-17 18:31:00,
2013-07-17 11:36:00,57.9,54.1,30.04,WNW,286,5.0,11.0,87,0.00,,,0.00,383.0,meteohub,2013-07-17 18:36:00,
2013-07-17 11:41:00,58.5,54.7,30.04,SW,214,6.0,12.0,87,0.00,,,0.00,396.0,meteohub,2013-07-17 18:41:00,
2013-07-17 11:46:00,58.3,54.5,30.04,West,270,5.0,12.0,87,0.00,,,0.00,424.0,meteohub,2013-07-17 18:46:00,
2013-07-17 11:51:00,58.6,54.5,30.04,WSW,250,3.0,16.0,86,0.00,,,0.00,446.0,meteohub,2013-07-17 18:51:00,
2013-07-17 11:56:00,58.5,54.7,30.04,West,264,8.0,18.0,87,0.00,,,0.00,404.0,meteohub,2013-07-17 18:56:00,
2013-07-17 12:01:00,58.3,54.7,30.04,SW,233,15.0,18.0,88,0.00,,,0.00,448.0,meteohub,2013-07-17 19:01:00,
2013-07-17 12:06:00,58.8,55.2,30.04,West,277,2.0,18.0,88,0.00,,,0.00,401.0,meteohub,2013-07-17 19:06:00,
2013-07-17 12:11:00,59.2,55.4,30.04,WNW,282,2.0,15.0,87,0.00,,,0.00,446.0,meteohub,2013-07-17 19:11:00,
2013-07-17 12:16:00,59.2,55.0,30.04,SW,236,4.0,15.0,86,0.00,,,0.00,517.0,meteohub,2013-07-17 19:16:00,
2013-07-17 12:21:00,58.8,55.0,30.04,WSW,242,3.0,15.0,87,0.00,,,0.00,459.0,meteohub,2013-07-17 19:21:00,
2013-07-17 12:26:00,59.2,55.0,30.04,WNW,294,2.0,15.0,86,0.00,,,0.00,506.0,meteohub,2013-07-17 19:26:00,
2013-07-17 12:31:00,59.5,55.4,30.04,SW,236,2.0,15.0,86,0.00,,,0.00,492.0,meteohub,2013-07-17 19:31:00,
2013-07-17 12:36:00,59.2,55.4,30.04,WSW,238,10.0,13.0,87,0.00,,,0.00,527.0,meteohub,2013-07-17 19:36:00,
2013-07-17 12:41:00,59.5,55.4,30.04,West,263,7.0,13.0,86,0.00,,,0.00,601.0,meteohub,2013-07-17 19:41:00,
2013-07-17 12:46:00,59.7,55.2,30.04,West,271,7.0,13.0,85,0.00,,,0.00,584.0,meteohub,2013-07-17 19:46:00,
2013-07-17 12:51:00,59.9,55.8,30.04,NW,315,2.0,14.0,86,0.00,,,0.00,548.0,meteohub,2013-07-17 19:51:00,
2013-07-17 12:56:00,60.3,55.8,30.04,WNW,284,3.0,14.0,85,0.00,,,0.00,561.0,meteohub,2013-07-17 19:56:00,
2013-07-17 13:01:00,59.7,54.9,30.03,SSW,203,3.0,14.0,84,0.00,,,0.00,580.0,meteohub,2013-07-17 20:01:00,
2013-07-17 13:06:00,60.1,55.2,30.03,WSW,246,6.0,17.0,84,0.00,,,0.00,548.0,meteohub,2013-07-17 20:06:00,
2013-07-17 13:11:00,60.1,55.6,30.03,WSW,250,3.0,20.0,85,0.00,,,0.00,621.0,meteohub,2013-07-17 20:11:00,
2013-07-17 13:16:00,60.3,55.4,30.03,SSW,210,5.0,20.0,84,0.00,,,0.00,668.0,meteohub,2013-07-17 20:16:00,
2013-07-17 13:21:00,60.4,55.6,30.03,WNW,287,2.0,20.0,84,0.00,,,0.00,628.0,meteohub,2013-07-17 20:21:00,
2013-07-17 13:26:00,61.3,55.8,30.03,West,277,3.0,20.0,82,0.00,,,0.00,652.0,meteohub,2013-07-17 20:26:00,
2013-07-17 13:31:00,61.2,55.6,30.03,WNW,287,9.0,17.0,82,0.00,,,0.00,775.0,meteohub,2013-07-17 20:31:00,
2013-07-17 13:36:00,61.0,55.4,30.03,WSW,240,7.0,20.0,82,0.00,,,0.00,700.0,meteohub,2013-07-17 20:36:00,
2013-07-17 13:41:00,61.2,55.9,30.03,West,274,4.0,20.0,83,0.00,,,0.00,610.0,meteohub,2013-07-17 20:41:00,
2013-07-17 13:46:00,61.5,55.9,30.03,West,261,3.0,19.0,82,0.00,,,0.00,570.0,meteohub,2013-07-17 20:46:00,
2013-07-17 13:51:00,61.2,55.6,30.03,WSW,257,3.0,18.0,82,0.00,,,0.00,594.0,meteohub,2013-07-17 20:51:00,
2013-07-17 13:56:00,61.0,55.4,30.03,West,276,10.0,17.0,82,0.00,,,0.00,603.0,meteohub,2013-07-17 20:56:00,
2013-07-17 14:01:00,61.0,55.8,30.03,West,270,4.0,17.0,83,0.00,,,0.00,617.0,meteohub,2013-07-17 21:01:00,
2013-07-17 14:06:00,61.2,55.6,30.03,WSW,242,11.0,17.0,82,0.00,,,0.00,564.0,meteohub,2013-07-17 21:06:00,
2013-07-17 14:11:00,61.3,55.8,30.03,SW,236,4.0,17.0,82,0.00,,,0.00,580.0,meteohub,2013-07-17 21:11:00,
2013-07-17 14:16:00,61.2,55.6,30.03,SSW,203,7.0,17.0,82,0.00,,,0.00,610.0,meteohub,2013-07-17 21:16:00,
2013-07-17 14:21:00,61.2,55.6,30.03,SSW,211,7.0,17.0,82,0.00,,,0.00,615.0,meteohub,2013-07-17 21:21:00,
2013-07-17 14:26:00,61.3,55.8,30.03,SSW,201,3.0,17.0,82,0.00,,,0.00,591.0,meteohub,2013-07-17 21:26:00,
2013-07-17 14:31:00,61.5,55.9,30.03,SW,221,5.0,17.0,82,0.00,,,0.00,548.0,meteohub,2013-07-17 21:31:00,
2013-07-17 14:36:00,61.3,56.1,30.03,West,267,6.0,14.0,83,0.00,,,0.00,663.0,meteohub,2013-07-17 21:36:00,
2013-07-17 14:41:00,61.7,55.8,30.02,SW,234,4.0,14.0,81,0.00,,,0.00,540.0,meteohub,2013-07-17 21:41:00,
2013-07-17 14:46:00,61.3,55.4,30.02,SW,223,7.0,14.0,81,0.00,,,0.00,584.0,meteohub,2013-07-17 21:46:00,
2013-07-17 14:51:00,61.2,55.6,30.02,WSW,248,6.0,14.0,82,0.00,,,0.00,561.0,meteohub,2013-07-17 21:51:00,
2013-07-17 14:56:00,60.6,55.0,30.02,SSW,210,3.0,16.0,82,0.00,,,0.00,563.0,meteohub,2013-07-17 21:56:00,
2013-07-17 15:01:00,60.8,55.6,30.02,West,273,10.0,18.0,83,0.00,,,0.00,557.0,meteohub,2013-07-17 22:01:00,
2013-07-17 15:06:00,61.0,55.4,30.02,SSW,209,4.0,18.0,82,0.00,,,0.00,677.0,meteohub,2013-07-17 22:06:00,
2013-07-17 15:12:00,61.2,55.2,30.02,West,268,2.0,18.0,81,0.00,,,0.00,584.0,meteohub,2013-07-17 22:12:00,
2013-07-17 15:17:00,60.8,55.2,30.02,SW,229,4.0,16.0,82,0.00,,,0.00,680.0,meteohub,2013-07-17 22:17:00,
2013-07-17 15:22:00,61.2,55.2,30.02,West,274,9.0,18.0,81,0.00,,,0.00,751.0,meteohub,2013-07-17 22:22:00,
2013-07-17 15:27:00,60.8,54.9,30.02,North,5,3.0,18.0,81,0.00,,,0.00,621.0,meteohub,2013-07-17 22:27:00,
2013-07-17 15:32:00,61.3,55.4,30.02,WNW,287,5.0,18.0,81,0.00,,,0.00,601.0,meteohub,2013-07-17 22:32:00,
2013-07-17 15:37:00,61.0,55.0,30.02,WSW,252,7.0,17.0,81,0.00,,,0.00,473.0,meteohub,2013-07-17 22:37:00,
2013-07-17 15:42:00,60.6,55.0,30.02,West,273,4.0,15.0,82,0.00,,,0.00,629.0,meteohub,2013-07-17 22:42:00,
2013-07-17 15:47:00,60.6,55.0,30.02,WNW,294,11.0,15.0,82,0.00,,,0.00,489.0,meteohub,2013-07-17 22:47:00,
2013-07-17 15:52:00,60.8,55.2,30.02,SSW,213,7.0,15.0,82,0.00,,,0.00,578.0,meteohub,2013-07-17 22:52:00,
2013-07-17 15:57:00,61.2,55.2,30.01,SW,231,10.0,15.0,81,0.00,,,0.00,520.0,meteohub,2013-07-17 22:57:00,
2013-07-17 16:02:00,61.0,55.0,30.01,South,186,2.0,15.0,81,0.00,,,0.00,916.0,meteohub,2013-07-17 23:02:00,
2013-07-17 16:07:00,60.8,54.9,30.01,SSW,208,5.0,18.0,81,0.00,,,0.00,515.0,meteohub,2013-07-17 23:07:00,
2013-07-17 16:12:00,60.4,54.9,30.01,West,278,8.0,18.0,82,0.00,,,0.00,494.0,meteohub,2013-07-17 23:12:00,
2013-07-17 16:17:00,60.3,55.0,30.01,NW,304,11.0,18.0,83,0.00,,,0.00,568.0,meteohub,2013-07-17 23:17:00,
2013-07-17 16:22:00,59.9,54.7,30.01,West,264,4.0,18.0,83,0.00,,,0.00,424.0,meteohub,2013-07-17 23:22:00,
2013-07-17 16:27:00,59.9,54.7,30.01,WSW,246,3.0,18.0,83,0.00,,,0.00,448.0,meteohub,2013-07-17 23:27:00,
2013-07-17 16:32:00,59.4,54.5,30.01,SW,229,13.0,18.0,84,0.00,,,0.00,425.0,meteohub,2013-07-17 23:32:00,
2013-07-17 16:37:00,59.5,54.3,30.01,West,265,4.0,18.0,83,0.00,,,0.00,438.0,meteohub,2013-07-17 23:37:00,
2013-07-17 16:42:00,59.2,54.3,30.01,WSW,250,13.0,21.0,84,0.00,,,0.00,387.0,meteohub,2013-07-17 23:42:00,
2013-07-17 16:47:00,59.2,54.3,30.01,WSW,252,5.0,21.0,84,0.00,,,0.00,383.0,meteohub,2013-07-17 23:47:00,
2013-07-17 16:52:00,58.8,54.0,30.00,SW,232,6.0,21.0,84,0.00,,,0.00,341.0,meteohub,2013-07-17 23:52:00,
2013-07-17 16:57:00,58.3,53.8,30.00,West,272,9.0,18.0,85,0.00,,,0.00,359.0,meteohub,2013-07-17 23:57:00,
2013-07-17 17:02:00,58.3,54.1,30.00,NW,307,4.0,18.0,86,0.00,,,0.00,311.0,meteohub,2013-07-18 00:02:00,
2013-07-17 17:07:00,57.7,54.0,30.00,SSW,210,6.0,18.0,87,0.00,,,0.00,269.0,meteohub,2013-07-18 00:07:00,
2013-07-17 17:12:00,57.7,54.1,30.00,West,274,7.0,18.0,88,0.00,,,0.00,292.0,meteohub,2013-07-18 00:12:00,
2013-07-17 17:17:00,57.6,53.8,30.00,West,269,9.0,18.0,87,0.00,,,0.00,272.0,meteohub,2013-07-18 00:17:00,
2013-07-17 17:22:00,57.4,53.8,30.00,WSW,241,15.0,17.0,88,0.00,,,0.00,301.0,meteohub,2013-07-18 00:22:00,
2013-07-17 17:27:00,57.4,53.8,30.00,WSW,240,12.0,19.0,88,0.00,,,0.00,264.0,meteohub,2013-07-18 00:27:00,
2013-07-17 17:32:00,56.8,53.2,30.00,SW,221,11.0,19.0,88,0.00,,,0.00,276.0,meteohub,2013-07-18 00:32:00,
2013-07-17 17:37:00,56.8,53.6,29.99,West,272,4.0,19.0,89,0.00,,,0.00,264.0,meteohub,2013-07-18 00:37:00,
2013-07-17 17:42:00,56.7,53.4,29.99,SW,215,14.0,20.0,89,0.00,,,0.00,260.0,meteohub,2013-07-18 00:42:00,
2013-07-17 17:47:00,56.5,53.2,29.99,WNW,286,3.0,20.0,89,0.00,,,0.00,253.0,meteohub,2013-07-18 00:47:00,
2013-07-17 17:52:00,56.3,53.4,29.99,WSW,257,9.0,20.0,90,0.00,,,0.00,188.0,meteohub,2013-07-18 00:52:00,
2013-07-17 17:57:00,55.8,52.9,29.99,WSW,248,6.0,19.0,90,0.00,,,0.00,209.0,meteohub,2013-07-18 00:57:00,
2013-07-17 18:02:00,55.9,53.4,29.99,WSW,257,5.0,19.0,91,0.00,,,0.00,162.0,meteohub,2013-07-18 01:02:00,
2013-07-17 18:07:00,55.9,53.4,29.99,SW,225,12.0,19.0,91,0.00,,,0.00,163.0,meteohub,2013-07-18 01:07:00,
2013-07-17 18:12:00,55.9,53.1,29.99,SSW,201,5.0,15.0,90,0.00,,,0.00,167.0,meteohub,2013-07-18 01:12:00,
2013-07-17 18:17:00,55.6,53.2,29.99,West,270,10.0,15.0,92,0.00,,,0.00,127.0,meteohub,2013-07-18 01:17:00,
2013-07-17 18:22:00,55.6,53.2,29.99,SW,228,12.0,18.0,92,0.00,,,0.00,123.0,meteohub,2013-07-18 01:22:00,
2013-07-17 18:27:00,55.4,53.1,29.99,WSW,257,6.0,19.0,92,0.00,,,0.00,107.0,meteohub,2013-07-18 01:27:00,
2013-07-17 18:32:00,55.4,53.1,29.99,WSW,244,7.0,19.0,92,0.00,,,0.00,105.0,meteohub,2013-07-18 01:32:00,
2013-07-17 18:37:00,55.4,53.1,29.99,West,281,2.0,19.0,92,0.00,,,0.00,105.0,meteohub,2013-07-18 01:37:00,
2013-07-17 18:42:00,55.4,53.1,29.99,SW,221,7.0,16.0,92,0.00,,,0.00,104.0,meteohub,2013-07-18 01:42:00,
2013-07-17 18:47:00,55.2,52.9,29.99,WSW,242,15.0,19.0,92,0.00,,,0.00,95.0,meteohub,2013-07-18 01:47:00,
2013-07-17 18:52:00,55.2,53.2,29.99,West,265,5.0,19.0,93,0.00,,,0.00,88.0,meteohub,2013-07-18 01:52:00,
2013-07-17 18:57:00,55.2,53.2,29.99,West,281,4.0,19.0,93,0.00,,,0.00,91.0,meteohub,2013-07-18 01:57:00,
2013-07-17 19:02:00,55.4,53.4,29.99,WSW,243,7.0,15.0,93,0.00,,,0.00,93.0,meteohub,2013-07-18 02:02:00,
2013-07-17 19:07:00,55.4,53.1,29.99,WSW,240,13.0,15.0,92,0.00,,,0.00,74.0,meteohub,2013-07-18 02:07:00,
2013-07-17 19:12:00,55.0,53.1,29.99,SW,232,7.0,15.0,93,0.00,,,0.00,76.0,meteohub,2013-07-18 02:12:00,
2013-07-17 19:17:00,55.2,53.2,29.99,WSW,249,3.0,15.0,93,0.00,,,0.00,70.0,meteohub,2013-07-18 02:17:00,
2013-07-17 19:22:00,55.2,53.2,29.99,West,273,3.0,15.0,93,0.00,,,0.00,62.0,meteohub,2013-07-18 02:22:00,
2013-07-17 19:27:00,55.0,53.1,29.99,SW,221,6.0,15.0,93,0.00,,,0.00,60.0,meteohub,2013-07-18 02:27:00,
2013-07-17 19:32:00,54.9,52.9,29.99,WSW,252,6.0,16.0,93,0.00,,,0.00,49.0,meteohub,2013-07-18 02:32:00,
2013-07-17 19:37:00,54.9,53.2,29.99,SSW,197,2.0,16.0,94,0.00,,,0.00,49.0,meteohub,2013-07-18 02:37:00,
2013-07-17 19:42:00,54.9,53.2,29.99,West,259,8.0,16.0,94,0.00,,,0.00,46.0,meteohub,2013-07-18 02:42:00,
2013-07-17 19:47:00,55.0,53.1,29.99,SW,236,12.0,13.0,93,0.00,,,0.00,40.0,meteohub,2013-07-18 02:47:00,
2013-07-17 19:48:00,55.0,53.1,29.99,SW,233,7.0,13.0,93,0.00,,,0.00,42.0,meteohub,2013-07-18 02:48:00,
2013-07-17 19:53:00,54.9,52.9,29.99,SW,227,6.0,14.0,93,0.00,,,0.00,28.0,meteohub,2013-07-18 02:53:00,
2013-07-17 19:58:00,54.9,52.9,29.99,SW,223,7.0,14.0,93,0.00,,,0.00,21.0,meteohub,2013-07-18 02:58:00,
2013-07-17 20:03:00,54.7,53.1,29.99,WSW,240,5.0,20.0,94,0.00,,,0.00,18.0,meteohub,2013-07-18 03:03:00,
2013-07-17 20:08:00,54.5,52.5,29.99,West,277,4.0,20.0,93,0.00,,,0.00,11.0,meteohub,2013-07-18 03:08:00,
2013-07-17 20:13:00,54.5,52.9,29.99,SW,235,2.0,20.0,94,0.00,,,0.00,7.0,meteohub,2013-07-18 03:13:00,
2013-07-17 20:18:00,54.7,53.1,29.99,WSW,239,3.0,16.0,94,0.00,,,0.00,5.0,meteohub,2013-07-18 03:18:00,
2013-07-17 20:23:00,54.5,52.9,29.99,West,266,6.0,16.0,94,0.00,,,0.00,0.0,meteohub,2013-07-18 03:23:00,
2013-07-17 20:28:00,54.3,52.7,29.99,SW,218,10.0,16.0,94,0.00,,,0.00,0.0,meteohub,2013-07-18 03:28:00,
2013-07-17 20:33:00,54.1,52.5,29.99,West,259,7.0,16.0,94,0.00,,,0.00,0.0,meteohub,2013-07-18 03:33:00,
2013-07-17 20:38:00,54.0,52.5,29.99,WNW,297,2.0,15.0,95,0.00,,,0.00,0.0,meteohub,2013-07-18 03:38:00,
2013-07-17 20:43:00,54.0,52.5,29.99,West,259,11.0,15.0,95,0.00,,,0.00,0.0,meteohub,2013-07-18 03:43:00,
2013-07-17 20:48:00,54.0,52.5,29.99,SW,220,7.0,17.0,95,0.00,,,0.00,0.0,meteohub,2013-07-18 03:48:00,
2013-07-17 20:53:00,54.0,52.5,29.99,WSW,248,7.0,17.0,95,0.00,,,0.00,0.0,meteohub,2013-07-18 03:53:00,
2013-07-17 20:58:00,54.1,52.7,29.99,SW,225,16.0,17.0,95,0.00,,,0.00,0.0,meteohub,2013-07-18 03:58:00,
2013-07-17 21:01:00,54.1,52.7,29.99,SW,219,7.0,17.0,95,0.00,,,0.00,0.0,meteohub,2013-07-18 04:01:00,
2013-07-17 21:02:00,54.0,52.5,29.99,WSW,252,7.0,17.0,95,0.00,,,0.00,0.0,meteohub,2013-07-18 04:02:00,
2013-07-17 21:07:00,54.0,52.5,29.99,WNW,293,4.0,17.0,95,0.00,,,0.00,0.0,meteohub,2013-07-18 04:07:00,
2013-07-17 21:12:00,53.8,52.3,29.99,SSW,205,6.0,17.0,95,0.00,,,0.00,0.0,meteohub,2013-07-18 04:12:00,
2013-07-17 21:17:00,53.6,52.2,29.99,WSW,248,10.0,15.0,95,0.00,,,0.00,0.0,meteohub,2013-07-18 04:17:00,
2013-07-17 21:22:00,53.6,52.5,29.99,West,272,9.0,15.0,96,0.00,,,0.00,0.0,meteohub,2013-07-18 04:22:00,
2013-07-17 21:27:00,53.4,52.3,30.00,WSW,254,3.0,15.0,96,0.00,,,0.00,0.0,meteohub,2013-07-18 04:27:00,
2013-07-17 21:32:00,53.4,52.3,30.00,WSW,248,1.0,16.0,96,0.00,,,0.00,0.0,meteohub,2013-07-18 04:32:00,
2013-07-17 21:37:00,53.4,52.3,30.00,West,281,2.0,16.0,96,0.00,,,0.00,0.0,meteohub,2013-07-18 04:37:00,
2013-07-17 21:42:00,53.4,52.3,29.99,West,269,1.0,16.0,96,0.00,,,0.00,0.0,meteohub,2013-07-18 04:42:00,
2013-07-17 21:47:00,53.6,52.5,29.99,WSW,237,5.0,13.0,96,0.00,,,0.00,0.0,meteohub,2013-07-18 04:47:00,
2013-07-17 21:52:00,53.6,52.5,30.00,WSW,258,1.0,15.0,96,0.00,,,0.00,0.0,meteohub,2013-07-18 04:52:00,
2013-07-17 21:57:00,53.4,52.3,30.00,West,275,4.0,16.0,96,0.00,,,0.00,0.0,meteohub,2013-07-18 04:57:00,
2013-07-17 22:02:00,53.4,52.3,30.00,SW,215,4.0,16.0,96,0.00,,,0.00,0.0,meteohub,2013-07-18 05:02:00,
2013-07-17 22:07:00,53.4,52.3,30.00,WSW,243,11.0,16.0,96,0.00,,,0.00,0.0,meteohub,2013-07-18 05:07:00,
2013-07-17 22:12:00,53.6,52.7,30.00,WNW,284,2.0,13.0,97,0.00,,,0.00,0.0,meteohub,2013-07-18 05:12:00,
2013-07-17 22:17:00,53.6,52.7,30.01,WSW,241,3.0,16.0,97,0.00,,,0.00,0.0,meteohub,2013-07-18 05:17:00,
2013-07-17 22:22:00,53.6,52.7,30.00,SW,228,6.0,16.0,97,0.00,,,0.00,0.0,meteohub,2013-07-18 05:22:00,
2013-07-17 22:27:00,53.6,52.7,30.01,SW,235,10.0,15.0,97,0.00,,,0.00,0.0,meteohub,2013-07-18 05:27:00,
2013-07-17 22:32:00,53.6,52.5,30.01,SW,225,7.0,15.0,96,0.00,,,0.00,0.0,meteohub,2013-07-18 05:32:00,
2013-07-17 22:37:00,53.6,52.7,30.01,WSW,257,12.0,13.0,97,0.00,,,0.00,0.0,meteohub,2013-07-18 05:37:00,
2013-07-17 22:42:00,53.6,52.7,30.01,WSW,254,2.0,15.0,97,0.00,,,0.00,0.0,meteohub,2013-07-18 05:42:00,
2013-07-17 22:47:00,53.6,52.7,30.01,WSW,242,10.0,15.0,97,0.00,,,0.00,0.0,meteohub,2013-07-18 05:47:00,
2013-07-17 22:52:00,53.6,52.7,30.01,West,261,9.0,15.0,97,0.00,,,0.00,0.0,meteohub,2013-07-18 05:52:00,
2013-07-17 22:57:00,53.8,52.9,30.01,WSW,251,4.0,13.0,97,0.00,,,0.00,0.0,meteohub,2013-07-18 05:57:00,
2013-07-17 23:02:00,53.6,52.7,30.01,West,260,2.0,13.0,97,0.00,,,0.00,0.0,meteohub,2013-07-18 06:02:00,
2013-07-17 23:07:00,53.6,52.7,30.01,WSW,241,2.0,14.0,97,0.00,,,0.00,0.0,meteohub,2013-07-18 06:07:00,
2013-07-17 23:12:00,53.6,52.7,30.01,SW,230,10.0,15.0,97,0.00,,,0.00,0.0,meteohub,2013-07-18 06:12:00,
2013-07-17 23:17:00,53.6,52.7,30.01,SSW,200,4.0,15.0,97,0.00,,,0.00,0.0,meteohub,2013-07-18 06:17:00,
2013-07-17 23:22:00,53.6,52.7,30.00,WSW,246,7.0,14.0,97,0.00,,,0.00,0.0,meteohub,2013-07-18 06:22:00,
2013-07-17 23:27:00,53.4,52.5,30.00,West,263,4.0,15.0,97,0.00,,,0.00,0.0,meteohub,2013-07-18 06:27:00,
2013-07-17 23:32:00,53.4,52.5,30.00,West,267,5.0,15.0,97,0.00,,,0.00,0.0,meteohub,2013-07-18 06:32:00,
2013-07-17 23:37:00,53.4,52.5,30.00,WSW,252,6.0,17.0,97,0.00,,,0.00,0.0,meteohub,2013-07-18 06:37:00,
2013-07-17 23:42:00,53.4,52.5,30.01,WSW,240,4.0,18.0,97,0.00,,,0.00,0.0,meteohub,2013-07-18 06:42:00,
2013-07-17 23:47:00,53.4,52.5,30.00,SW,232,9.0,18.0,97,0.00,,,0.00,0.0,meteohub,2013-07-18 06:47:00,
2013-07-17 23:52:00,53.4,52.5,30.01,SW,225,10.0,13.0,97,0.00,,,0.00,0.0,meteohub,2013-07-18 06:52:00,
2013-07-17 23:57:00,53.4,52.5,30.01,West,263,3.0,14.0,97,0.00,,,0.00,0.0,meteohub,2013-07-18 06:57:00,